Location: Pacheco
(37.9835°N, 122.0752°W)
Time: 21:57:32
(UTC+00:00)

Cosmos 1484 Rocket - Pass Details

Date: 13 April 2024
Orbit: 480 x 525 km, 97.6° (Epoch: 20 May)

Event Time Altitude Azimuth Distance (km) Brightness Sun altitude
Rises 12:52:44 0° 5° (N) 2,569 6.6 -8.8°
Reaches altitude 10° 12:54:52 10° 358° (N) 1,677 5.5 -8.4°
Maximum altitude 12:58:18 44° 286° (WNW) 677 2.9 -7.8°
Drops below altitude 10° 13:01:41 10° 213° (SSW) 1,651 4.8 -7.1°
Sets 13:03:47 0° 207° (SSW) 2,524 5.8 -6.7°
